Location: Azereix
(43.2167°N, 0.0167°W)
Time: 01:02:01
(UTC+00:00)

Daily predictions for brighter satellites

Satellite Brightness Start Highest point End
(mag) Time Altitude Azimuth Time Altitude Azimuth Time Altitude Azimuth
ATLAS CENTAUR R/B 3.9 00:07:30 19° WSW 00:11:33 65° NNW 00:25:25 10° NE
Cosmos 1825 4.0 00:13:02 22° E 00:13:02 22° E 00:15:49 10° NE
Cosmos 1408 3.4 00:19:18 43° ENE 00:19:18 43° ENE 00:22:24 10° NNE
Cosmos 1812 Rocket 3.7 00:15:04 10° NNW 00:19:21 57° W 00:19:25 56° W
SL-16 R/B 2.6 00:19:57 37° WSW 00:21:59 57° WNW 00:27:36 10° NNE
Cosmos 405 Rocket 3.8 00:23:36 33° E 00:23:36 33° E 00:26:36 10° NNE
USA 229 DEB 3.5 00:22:35 47° SSW 00:24:33 76° ESE 00:31:19 10° NE
USA 229 3.5 00:22:42 47° SSW 00:24:39 75° ESE 00:31:25 10° NE
Cosmos 2058 4.4 00:24:22 24° E 00:24:40 25° E 00:28:01 10° NE
Cosmos 2237 Rocket 4.2 00:21:09 10° W 00:25:26 22° NW 00:29:43 10° N
X-37B 3.2 00:28:47 15° ENE 00:28:47 15° ENE 00:29:27 10° ENE
Cosmos 2221 4.4 00:23:28 10° NNE 00:26:53 22° ENE 00:28:23 19° ESE
NOSS 3-1 (C) 3.5 00:31:10 35° WSW 00:33:23 62° NW 00:39:35 10° NNE
Cosmos 1898 Rocket 4.1 00:28:55 10° NNW 00:34:03 52° ENE 00:36:11 32° SE
Cosmos 2369 Rocket 2.4 00:30:44 10° NNW 00:36:28 67° ENE 00:38:58 34° SE
Cosmos 1356 4.0 00:37:29 55° NNE 00:37:29 55° NNE 00:40:15 10° NNE
SJ 16-02 2.0 00:36:08 10° NNW 00:40:01 42° W 00:40:01 42° W
GP-B 3.9 00:37:19 10° NNW 00:41:25 37° W 00:41:51 36° W
NOSS 2-3 (E) 4.1 00:42:31 42° W 00:43:29 52° NW 00:48:09 10° NNE
NOSS 3-1 (A) 3.1 00:42:42 49° SW 00:44:16 87° NW 00:50:29 10° NE
Cosmos 1825 Rocket 3.7 00:45:41 56° WSW 00:46:08 60° W 00:50:33 10° N
ATLAS 5 CENTAUR R/B 3.3 00:48:04 17° ESE 00:48:04 17° ESE 00:50:25 10° ENE
USA 308 4.2 00:53:27 27° ESE 00:53:27 27° ESE 00:56:20 10° ENE
CZ-4 R/B 3.9 00:48:04 10° NNE 00:52:42 61° ESE 00:53:33 51° SSE
Cosmos 2142 Rocket 4.5 00:48:32 10° NNW 00:54:37 66° W 00:56:33 44° SSW
Helios 1A 3.1 01:00:06 54° SE 01:00:52 69° ENE 01:05:03 10° N
Cosmos 468 Rocket 4.0 01:00:57 48° SW 01:02:18 70° WNW 01:07:31 10° NNE
Cosmos 1606 4.2 00:59:38 10° NNE 01:03:03 30° ENE 01:04:13 25° ESE
SL-16 R/B 3.4 00:59:52 15° SE 01:04:45 45° ENE 01:10:35 10° N
USA 305 3.4 01:10:32 45° SE 01:10:32 45° SE 01:14:26 10° ENE
USA 290 4.1 01:11:15 22° E 01:11:15 22° E 01:13:33 10° NE
Cosmos 1953 Rocket 3.9 01:10:29 45° WSW 01:11:04 49° WNW 01:15:22 10° N
Lacrosse 4 Rocket 3.5 01:11:42 10° N 01:15:08 25° NE 01:18:31 10° ESE
Cosmos 2098 Rocket 3.5 01:15:08 42° S 01:16:57 76° E 01:21:32 10° NNE
Cosmos 1763 Rocket 3.9 01:15:44 38° WSW 01:17:17 52° WNW 01:22:18 10° N
BREEZE-M R/B 2.9 01:18:11 43° SE 01:18:11 43° SE 01:22:01 10° ENE
USA 267 3.7 01:19:19 36° SSW 01:20:31 39° SW 01:26:34 10° WNW
Cosmos 1892 4.3 01:21:02 23° W 01:21:19 24° WNW 01:24:31 10° NNW
Cosmos 1437 Rocket 2.5 01:18:15 10° NNW 01:22:08 73° W 01:22:18 71° SW
Resurs 1-4 Rocket 2.5 01:17:03 10° NNE 01:22:17 56° E 01:24:23 34° SSE
SL-4 R/B 4.3 01:21:43 10° NW 01:24:42 21° N 01:27:32 10° NE
Cosmos 1943 Rocket 3.4 01:25:01 10° NW 01:29:17 23° WSW 01:29:31 23° WSW
NOSS 2-2 (D) 3.5 01:30:21 44° ESE 01:30:21 44° ESE 01:33:45 10° NE
Cosmos 1842 Rocket 3.4 01:27:55 10° NNW 01:32:16 75° W 01:33:14 52° SSW
USA 306 2.8 01:32:05 57° S 01:32:43 67° SE 01:36:56 10° ENE
NPP 4.0 01:28:11 10° NNE 01:33:29 56° E 01:35:57 30° SSE
Cosmos 921 Rocket 2.8 01:32:38 55° S 01:33:30 83° ESE 01:37:42 10° NNE
Exosat Rocket 4.4 01:30:27 28° WSW 01:33:34 49° WNW 01:38:44 10° NNE
ADEOS II 3.4 01:29:06 10° NNE 01:33:50 32° E 01:36:49 19° SSE
Cosmos 1943 3.5 01:33:25 34° SW 01:35:45 59° WNW 01:41:21 10° NNE
Meteor 2-8 Rocket 4.4 01:29:38 10° N 01:35:47 82° W 01:38:53 32° S
FALCON 9 DEB 4.4 01:32:52 10° NW 01:36:08 41° NNE 01:39:22 10° E
MOZ.5/SAFIR/RUBIN 5/SL-8 3.9 01:38:06 44° SSW 01:39:20 59° W 01:44:03 10° NNW
CZ-2D R/B 2.1 01:35:48 10° NNE 01:41:02 79° ESE 01:43:15 36° S
Cosmos 1603 4.3 01:41:52 28° WSW 01:44:30 49° WNW 01:50:00 10° NNE
Cosmos 2151 3.4 01:44:56 33° SSE 01:46:32 54° E 01:50:38 10° NNE
IDEFIX/ARIANE 42P 4.4 01:43:57 10° NE 01:48:07 24° E 01:52:15 10° SE
Cosmos 1825 3.6 01:47:48 23° W 01:48:14 24° WNW 01:51:19 10° NNW
Cosmos 1076 Rocket 3.4 01:49:45 45° SSW 01:50:58 74° W 01:55:12 10° N
AQUA 4.0 01:48:18 10° NNE 01:53:04 67° ESE 01:55:17 31° S
Cosmos 1437 2.3 01:53:14 10° NNW 01:55:51 75° NW 01:55:51 75° NW
Cosmos 540 Rocket 4.2 01:55:00 27° WSW 01:57:10 42° WNW 02:02:02 10° N
Cosmos 1242 Rocket 2.9 01:56:21 10° NNW 01:59:47 43° W 02:00:05 42° WSW
DELTA 2 R/B (1) 3.6 01:57:41 25° WSW 02:00:49 59° S 02:06:16 10° E
Cosmos 2058 4.2 02:00:33 23° W 02:01:29 25° WNW 02:04:54 10° NNW
X-37B 0.9 02:01:03 20° WNW 02:03:05 67° N 02:06:15 10° E
Cosmos 2221 3.4 02:00:41 10° NNW 02:04:28 30° W 02:05:13 29° WSW
Cosmos 841 Rocket 4.2 02:03:07 26° WSW 02:05:30 42° WNW 02:10:23 10° N
BREEZE-M DEB (TANK) 3.8 02:03:19 10° NW 02:05:32 24° N 02:07:30 10° ENE
IRS-1D 4.1 02:02:53 10° NNE 02:07:52 50° E 02:11:14 19° SSE
NOSS 2-2 (E) 3.6 02:08:02 33° WSW 02:09:10 48° NW 02:12:48 10° NNE
Cosmos 1656 Rocket 4.4 02:04:35 10° NW 02:09:41 35° WSW 02:11:35 28° SW
Cosmos 2292 Rocket 3.3 02:09:52 32° SSE 02:10:51 47° E 02:13:43 10° NNE
Cosmos 1553 Rocket 4.4 02:05:05 10° N 02:11:21 64° E 02:17:28 10° SSE
GPS 2-04 Rocket1 3.8 02:15:42 26° SSE 02:15:42 26° SSE 02:18:41 10° ESE
USA 307 3.2 02:14:12 26° WSW 02:16:27 63° NW 02:20:41 10° NE
USA 281 4.1 02:11:09 10° SE 02:17:25 50° ENE 02:23:43 10° NNW
Cosmos 1782 3.8 02:13:58 10° N 02:17:51 46° ENE 02:21:41 10° SSE
Cosmos 1271 Rocket 4.5 02:16:21 10° NNE 02:19:40 29° ENE 02:22:59 10° SE
Cosmos 2026 Rocket 4.1 02:16:00 25° SSW 02:19:48 66° W 02:26:08 10° N
Cosmos 2369 Rocket 3.7 02:16:05 10° WNW 02:19:53 18° W 02:20:43 18° WSW
NOSS 2-2 (C) 3.7 02:21:26 28° WSW 02:22:51 45° NW 02:26:25 10° NNE
ERBS 2.9 02:24:39 32° S 02:25:34 40° SE 02:28:37 10° ENE
Aureole 3 Rocket 3.9 02:22:22 10° NNW 02:26:12 38° W 02:28:37 24° SW
Cosmos 1633 3.8 02:27:25 23° W 02:28:19 26° WNW 02:31:19 10° NNW
Helios 1B rocket 3.1 02:24:45 10° N 02:28:35 40° WNW 02:30:26 25° WSW
ATLAS 5 CENTAUR R/B 2.1 02:29:34 22° WSW 02:31:46 44° NW 02:36:01 10° NNE
FALCON 9 DEB 4.4 02:29:06 10° NW 02:32:02 38° NNE 02:34:55 10° E
USA 308 3.5 02:29:31 18° WSW 02:32:26 50° NNW 02:36:36 10° NE
SL-19 R/B 4.4 02:28:06 10° N 02:33:18 59° WNW 02:36:50 21° SW
Cosmos 2298 Rocket 4.0 02:29:19 10° NNW 02:34:40 78° WSW 02:39:58 10° SSE
SeaSat 1 3.3 02:32:37 10° NE 02:37:20 43° ESE 02:41:19 14° S
Cosmos 1606 4.4 02:35:52 10° NW 02:38:30 18° W 02:39:10 17° W
ADEOS Rocket 3.4 02:32:40 10° S 02:40:00 67° WSW 02:46:41 10° NNW
Meteor 2-21 4.5 02:36:15 16° S 02:41:21 90° NW 02:47:34 10° N
FALCON 9 DEB 4.2 02:39:20 10° NW 02:42:20 43° NNE 02:45:17 10° ESE
Cosmos 1933 3.8 02:41:09 10° NNW 02:45:04 45° W 02:47:29 21° SSW
USA 290 4.2 02:44:01 15° W 02:45:20 18° WNW 02:47:41 10° NNW
IRIDIUM 104 4.3 02:40:21 10° N 02:45:34 71° W 02:50:07 14° S
Cosmos 2150 Rocket 4.0 02:41:01 10° NNW 02:46:11 67° WSW 02:51:24 10° S
Cosmos 1833 Rocket 4.3 02:41:40 10° SSE 02:46:22 28° ESE 02:51:06 10° NE
SL-16 R/B 3.4 02:44:57 18° SW 02:48:27 31° W 02:53:53 10° NW
Meteor 1-28 Rocket 3.2 02:45:49 16° S 02:48:44 63° W 02:52:31 10° NNW
DELTA 2 DEB (DPAF) 4.2 02:45:47 13° S 02:49:43 62° WSW 02:54:08 10° NNW
Tianhe-1 3.2 02:49:34 14° SSE 02:50:22 15° SSE 02:52:13 10° ESE
USA 305 4.1 02:46:34 11° W 02:50:23 37° NNW 02:54:22 10° NE
Lacrosse 4 Rocket 2.1 02:50:11 10° NW 02:53:48 31° WSW 02:56:19 16° SSW
Cosmos 1125 Rocket 3.5 02:48:51 10° NNW 02:54:06 70° WSW 02:59:20 10° S
IRIDIUM 114 4.5 02:49:34 10° N 02:54:42 58° W 02:59:14 13° SSW
Cosmos 1151 Rocket 2.9 02:51:16 10° NNW 02:55:32 73° W 02:59:45 10° S
Cosmos 2266 Rocket 4.1 02:49:27 10° S 02:55:33 75° E 03:01:36 10° N
Meteor 1-29 4.2 02:55:43 10° N 02:58:41 28° WNW 03:00:31 17° WSW
CZ-4B R/B 4.3 02:55:09 10° NNE 03:00:18 52° E 03:05:21 10° S
CZ-4C R/B 2.4 02:56:32 15° SSW 03:00:27 57° ESE 03:06:00 10° NE
ARIANE 5 R/B 3.1 02:56:32 10° NNE 03:01:26 55° E 03:06:21 10° S
Resurs 1-4 Rocket 3.7 02:57:46 10° NNW 03:01:41 21° WNW 03:05:28 11° WSW
Cosmos 1766 Rocket 3.7 02:59:08 16° SSW 03:02:37 59° W 03:07:04 10° N
Cosmos 1515 Rocket 4.2 02:58:39 10° N 03:03:02 57° E 03:07:23 10° SSE
SL-4 R/B 3.6 03:01:43 10° NW 03:05:01 32° NNE 03:08:09 10° E
Cosmos 1408 Rocket 3.8 03:00:50 10° S 03:05:15 73° E 03:09:44 10° NNE
Cosmos 2082 Rocket 4.3 03:05:13 10° SSE 03:09:20 21° E 03:13:27 10° NE
COSMOS 2441 4.5 03:04:39 10° NNE 03:09:31 78° ESE 03:14:18 10° S
CENTAUR R/B 4.0 03:02:16 10° NNW 03:10:14 57° NE 03:18:57 10° SE
Cosmos 1862 3.3 03:08:10 10° S 03:12:12 90° ESE 03:16:17 10° N
FALCON 9 DEB 4.0 03:09:58 10° WNW 03:12:53 27° SW 03:15:47 10° SSE
USA 306 4.5 03:09:10 10° W 03:12:56 30° NNW 03:16:42 10° NE
ADEOS II 3.0 03:08:47 10° N 03:13:28 34° WNW 03:17:45 12° SW
Okean 3 Rocket 4.0 03:09:58 14° SSW 03:13:32 46° WNW 03:17:46 10° N
Lacrosse 5 rocket 2.6 03:10:37 10° NW 03:14:03 39° NE 03:17:34 10° ESE
CZ-2D R/B 4.1 03:17:32 10° NNW 03:20:25 15° WNW 03:23:17 10° W
ASTEX 1 3.7 03:18:37 10° SSW 03:23:25 50° W 03:28:13 10° NNW
Cosmos 1655 Rocket 4.2 03:17:25 10° SSW 03:23:32 59° WNW 03:29:42 10° N
IDEFIX/ARIANE 42P 3.1 03:22:55 10° N 03:27:54 45° WNW 03:32:50 10° SW
COSMOS 2406 3.6 03:27:01 10° S 03:32:37 65° ESE 03:38:14 10° NNE
PAYLOAD A 4.4 03:32:48 10° NNE 03:37:50 65° ESE 03:43:01 10° S
deb Kosmos-1763 4.1 03:34:44 10° SSW 03:38:12 59° WNW 03:41:42 10° NNE
CZ-2D R/B 3.4 03:35:14 10° NNE 03:39:26 83° WNW 03:43:29 10° SSW
X-37B 1.0 03:36:39 10° W 03:39:40 41° SSW 03:42:41 10° SE
Spot 4 Rocket 4.2 03:34:40 10° NNE 03:39:50 76° ESE 03:44:57 10° S
DELTA 2 R/B (1) 3.8 03:41:36 10° W 03:46:57 50° SSW 03:52:18 10° ESE
Cosmos 1656 3.8 03:42:25 10° NNW 03:48:02 61° WSW 03:53:37 10° S
